Location: Brabourne
(51.1333°N, 1.0000°E)
Time: 07:17:39
(UTC+00:00)

Cosmos 2266 Rocket - Pass Details

Date: 20 June 2021
Orbit: 935 x 1007 km, 82.9° (Epoch: 02 August)

Event Time Altitude Azimuth Distance (km) Brightness Sun altitude
Rises 02:49:15 0° 181° (S) 3,622 6.5 -6.4°
Reaches altitude 10° 02:51:45 10° 180° (S) 2,672 5.9 -6.2°
Maximum altitude 02:57:50 74° 96° (E) 981 4.2 -5.6°
Drops below altitude 10° 03:03:52 10° 13° (NNE) 2,661 7.4 -4.9°
Sets 03:06:21 0° 12° (NNE) 3,607 8.1 -4.7°
